ECMWFNIL_850_spd_081.txt.gz
Wind_Speed
5 6 6 6 7 8 9 10 12 13 13 14 16 17 17 18 19 20 21 23 25 25 25 25 25 26 26 25 24 23 24 25 26 26 26 25 24 23 23 24 24 24
4 5 6 6 6 6 6 7 8 9 10 11 13 14 15 16 16 17 19 21 23 26 27 28 28 29 29 29 28 27 26 27 27 28 30 30 28 26 25 25 25 25
5 5 6 6 6 6 5 5 4 5 7 8 10 12 13 14 15 15 16 18 21 24 26 27 28 29 30 30 29 29 28 28 29 30 30 30 30 30 29 28 27 27
5 6 7 7 6 6 5 3 2 3 4 6 7 9 10 11 13 13 14 15 17 19 21 23 25 26 27 28 28 29 28 28 29 30 30 30 30 31 32 31 31 30
7 7 8 7 7 5 4 4 4 4 5 6 7 8 10 11 12 12 12 12 13 15 17 18 20 22 23 24 26 27 28 28 28 29 30 31 31 31 31 31 33 32
8 8 8 8 7 6 5 5 5 5 6 7 8 9 10 12 13 14 13 13 13 14 16 16 18 19 20 22 23 24 26 27 28 29 30 31 32 32 31 31 31 31
8 9 8 8 8 7 6 6 5 5 6 7 7 9 10 11 13 14 15 15 14 14 15 17 18 19 20 21 21 22 22 23 24 26 27 29 30 30 30 31 31 31
9 9 9 8 9 9 9 8 8 8 8 8 9 10 11 12 13 13 14 13 13 13 15 16 18 19 20 21 22 22 22 22 22 23 24 25 26 26 27 29 31 32
11 10 9 9 10 10 11 11 12 12 13 12 12 13 13 13 13 13 12 12 12 14 16 17 19 20 21 23 24 24 24 23 22 22 23 24 24 24 24 25 27 29
13 12 11 11 12 12 12 12 13 14 15 15 15 15 15 14 14 14 13 13 13 15 17 19 20 22 22 24 25 25 26 25 25 24 23 23 23 23 23 23 23 24
15 14 13 13 14 14 14 14 14 15 15 16 16 17 17 17 16 16 16 16 16 17 19 20 21 22 23 23 24 26 26 27 27 27 26 24 23 22 22 22 21 21
16 15 14 15 15 15 15 15 15 15 16 17 17 18 18 18 18 18 18 19 19 19 20 21 22 23 24 25 26 27 28 28 29 28 28 26 24 22 21 21 21 20
15 15 14 15 15 15 16 16 16 16 17 17 18 18 19 19 19 19 19 20 20 20 21 22 23 24 25 27 28 29 29 30 30 30 29 27 26 24 22 22 22 21
14 13 13 14 14 15 17 18 18 18 18 18 19 19 20 19 19 19 20 20 21 21 22 23 24 25 27 28 29 30 30 30 30 29 29 28 27 25 24 23 22 22
11 12 12 13 14 16 18 19 18 18 19 19 20 21 21 20 20 20 20 20 21 22 23 24 25 26 28 30 30 31 31 31 30 29 29 28 27 26 24 23 22 22
10 11 12 13 14 17 19 19 19 19 20 21 22 22 22 22 22 22 22 22 22 23 24 25 26 26 28 29 29 30 31 31 31 31 30 29 28 27 26 24 23 22
12 12 13 14 16 18 19 20 20 21 21 22 23 23 23 24 24 24 24 24 25 25 26 26 27 27 28 28 29 29 31 31 32 32 32 30 28 28 28 27 25 23
15 15 16 17 18 20 21 21 22 22 23 23 23 24 24 24 24 24 25 25 25 26 27 27 28 28 29 30 30 29 30 31 32 33 34 33 30 28 28 28 27 26
19 19 20 20 21 21 21 22 22 22 23 23 23 23 23 23 22 22 22 23 24 25 26 27 28 29 30 31 32 31 30 30 31 33 34 34 33 31 30 30 30 29
21 21 22 21 21 20 20 20 21 22 22 22 22 23 23 23 22 22 22 22 23 24 25 26 27 29 31 32 33 33 32 31 31 32 34 35 35 34 33 34 34 33
21 21 22 22 21 21 20 21 21 22 22 23 23 24 24 23 23 22 22 22 22 23 24 25 27 28 30 32 34 34 33 32 32 32 34 36 37 36 36 36 36 35
24 24 24 24 25 24 24 24 23 23 23 24 24 24 24 24 23 23 23 23 23 23 23 24 25 27 29 31 33 35 35 34 33 33 35 37 38 38 38 38 38 37
25 26 26 26 27 28 27 26 25 24 24 24 25 25 26 26 26 26 26 25 25 24 24 24 25 27 29 31 34 36 37 36 35 35 35 37 39 40 40 39 38 36
25 26 27 27 27 28 28 27 25 24 25 25 26 28 28 28 28 27 28 27 26 25 24 24 25 26 29 31 35 37 37 37 37 36 36 38 39 40 41 40 38 37
24 25 26 26 27 27 28 27 26 25 26 26 28 29 30 30 29 29 29 29 27 25 25 25 25 27 29 32 35 38 38 37 37 37 36 37 39 40 40 40 40 39
22 23 24 25 26 26 27 27 27 26 26 27 28 30 30 31 31 31 31 30 28 26 26 26 26 27 29 31 35 38 40 39 38 37 36 35 36 38 39 39 40 40

ECMWFNIL_850_spd_087.txt.gz
Wind_Speed
5 4 4 4 4 5 7 8 10 11 12 13 14 14 15 16 17 17 18 18 19 19 19 20 20 20 20 20 20 20 20 19 19 18 17 16 16 16 16 17 19 20
3 4 5 6 6 7 8 9 10 11 12 13 14 14 15 15 16 16 17 17 18 19 19 20 21 21 21 21 21 21 20 20 19 19 18 17 17 17 17 17 17 18
5 5 6 7 8 9 9 10 10 10 11 12 12 13 13 14 15 16 16 17 18 18 19 20 21 21 22 22 22 22 21 21 21 20 20 20 19 19 19 19 19 19
6 7 8 9 9 9 9 9 9 10 11 11 12 13 13 14 15 15 16 17 18 19 20 20 21 21 22 22 23 23 22 23 23 23 23 22 22 22 22 21 21 21
8 9 9 10 10 9 9 9 10 12 12 13 13 14 14 14 15 16 17 18 19 20 20 21 22 22 23 24 24 24 24 25 25 25 25 25 25 25 25 24 24 24
9 10 11 11 11 11 11 12 13 14 14 15 14 15 15 15 16 17 18 19 20 20 21 22 23 23 24 25 25 26 26 27 27 27 27 27 27 27 27 27 27 27
10 11 12 13 13 13 14 14 15 16 16 16 15 16 16 16 17 18 18 19 20 21 22 23 24 25 25 26 26 27 27 28 28 29 29 29 29 29 29 29 29 28
10 12 13 13 13 14 15 16 16 17 17 17 17 18 18 18 18 19 19 20 20 22 23 24 25 25 26 26 27 28 28 29 30 30 30 31 31 31 31 31 30 29
10 12 12 13 14 15 16 17 17 18 18 18 19 19 19 19 20 20 20 21 21 22 23 24 25 26 27 28 29 29 30 30 31 31 32 32 32 32 32 32 31 30
11 12 12 13 15 16 17 18 18 19 19 20 20 20 20 20 21 21 21 22 23 24 25 25 26 27 27 28 29 30 30 30 31 31 31 31 31 31 32 31 31 31
12 13 14 15 17 18 19 19 20 20 20 20 20 20 21 21 21 22 22 23 24 25 26 26 26 27 27 27 28 28 29 29 29 29 29 29 29 30 30 30 30 30
14 15 16 18 18 19 20 20 20 20 20 20 20 20 21 21 22 22 23 24 24 25 25 25 26 26 26 27 27 28 28 28 28 28 28 28 28 29 29 29 29 29
16 17 18 19 19 19 19 19 19 19 19 20 20 20 20 21 21 22 22 22 23 23 24 24 25 25 25 27 28 28 28 28 28 28 28 28 29 29 30 30 30 30
18 19 19 19 19 19 19 19 19 19 19 19 19 19 20 20 21 21 20 21 21 22 23 24 24 25 27 28 29 29 29 28 28 28 28 28 29 30 31 31 32 32
18 19 19 19 19 19 19 19 19 19 19 19 19 19 19 20 19 19 19 19 20 21 22 24 25 26 27 28 29 29 29 29 28 28 28 28 29 30 31 33 34 34
18 18 18 18 18 19 19 19 19 18 18 18 18 19 19 19 18 18 18 19 21 22 23 24 25 25 25 26 27 28 28 28 28 27 28 28 30 31 32 33 34 35
17 17 17 17 18 18 18 19 18 18 18 18 18 18 18 18 17 18 19 20 21 22 23 24 25 24 24 24 25 26 26 27 27 27 27 29 31 32 33 34 35 36
16 16 16 17 18 18 18 19 18 18 18 18 18 18 17 17 18 19 20 21 21 22 22 23 24 24 24 24 25 25 26 26 27 27 28 30 31 32 34 35 36 37
15 16 17 18 18 19 18 18 18 18 18 18 18 18 18 18 19 20 21 21 21 22 23 23 24 24 24 24 25 26 26 27 28 29 30 31 32 33 34 35 36 36
16 17 18 18 18 18 18 18 19 19 20 20 20 19 19 20 21 21 21 22 22 23 23 24 24 24 24 25 25 26 27 28 29 30 31 32 33 33 32 32 34 34
17 18 18 18 18 18 18 19 19 20 21 21 21 21 21 21 22 22 22 23 23 23 24 24 24 24 24 25 26 26 27 28 29 30 32 32 32 32 30 29 31 32
18 18 18 18 18 18 18 19 20 21 22 22 22 22 22 22 23 23 23 23 23 23 24 25 25 25 25 26 27 27 28 29 30 31 32 32 32 31 31 30 32 32
19 18 18 18 17 17 19 20 21 22 22 22 22 22 23 23 23 23 23 23 24 25 25 26 26 26 26 27 28 28 29 30 31 33 33 33 32 31 31 31 32 33
19 18 17 17 17 18 19 20 20 21 21 21 21 22 23 23 23 23 23 24 25 26 26 27 28 27 27 27 27 28 29 30 32 33 33 34 33 32 32 31 31 32
19 18 17 16 16 18 18 19 19 20 20 20 21 21 22 22 22 22 23 24 25 26 27 28 28 28 27 26 25 26 27 29 31 32 33 34 34 34 33 32 32 33
18 17 16 16 17 17 18 18 18 18 18 19 19 20 20 21 21 22 23 24 25 25 27 27 28 28 27 26 25 24 25 27 29 30 31 32 33 33 34 33 33 34

ECMWFNIL_850_spd_093.txt.gz
Wind_Speed
5 6 6 6 7 7 7 8 8 8 10 11 14 15 14 14 14 14 15 15 14 14 14 13 13 13 13 13 13 14 14 13 13 15 16 16 15 15 15 15 14 13
6 7 7 8 8 8 9 10 10 10 13 15 16 15 15 15 15 14 15 15 15 14 14 14 14 14 14 15 15 16 16 15 16 17 17 18 18 17 17 16 16 15
8 8 9 9 9 11 11 11 12 14 16 17 16 15 16 16 15 15 15 15 15 15 15 15 15 16 17 17 17 18 18 17 18 18 18 18 19 18 17 16 16 15
9 9 9 9 10 10 10 12 15 17 17 17 16 16 16 16 16 15 15 16 16 16 17 17 17 18 18 19 19 19 19 19 20 19 18 17 18 18 17 16 15 14
9 9 10 10 10 11 13 15 17 18 17 17 17 16 16 16 16 16 16 17 17 17 18 18 18 18 19 19 20 20 19 19 19 18 17 15 15 17 18 17 14 14
10 10 10 12 13 15 17 18 18 17 17 17 17 16 16 16 16 17 17 17 17 18 18 18 18 19 19 19 20 20 20 19 18 17 16 15 14 15 17 16 14 14
12 12 13 15 17 17 18 18 18 17 17 17 17 17 16 16 17 17 17 17 17 17 18 18 18 19 19 19 19 20 20 20 19 17 16 16 15 14 15 15 14 14
12 14 16 17 18 18 18 18 18 18 17 16 16 17 16 16 17 17 16 17 17 17 17 17 18 18 19 19 19 19 19 19 18 17 16 15 15 15 14 15 14 14
12 14 17 18 18 18 18 18 18 17 16 16 16 16 16 17 17 16 16 16 16 16 16 17 17 18 18 18 18 18 17 17 16 16 16 15 14 14 14 14 13 14
14 16 18 18 18 18 18 18 18 17 16 16 16 16 16 16 16 16 15 16 16 15 16 16 16 17 16 16 17 17 17 16 15 15 15 15 14 14 14 14 13 14
18 18 19 19 19 18 18 18 18 17 16 16 16 16 16 15 15 14 14 15 15 15 15 15 16 16 15 15 16 17 16 16 15 14 14 14 13 13 13 14 14 15
19 19 19 19 19 18 18 18 17 17 16 16 15 15 15 14 14 14 14 14 14 14 15 15 15 15 15 15 16 16 15 15 15 14 12 13 12 12 13 14 14 15
20 19 19 19 18 18 17 17 16 16 16 15 15 15 14 13 13 14 14 14 13 14 14 15 15 15 15 16 16 16 15 15 15 14 13 14 13 13 14 14 14 15
20 19 19 18 18 17 16 16 16 15 15 14 14 14 13 13 13 13 13 13 13 14 14 15 15 16 16 17 17 16 14 14 15 15 14 15 15 14 15 15 15 15
19 19 19 18 17 16 16 15 15 15 15 14 13 13 13 13 12 12 12 13 14 14 15 16 17 17 18 18 17 16 14 13 13 14 14 14 14 14 14 15 15 15
19 19 18 18 17 16 15 15 15 15 14 13 13 13 13 13 12 12 12 13 14 14 15 17 17 18 18 17 16 15 14 13 12 12 13 13 13 13 14 15 15 15
19 19 18 17 16 16 15 15 14 14 14 13 12 13 13 13 13 13 13 14 14 14 16 16 17 17 16 15 15 15 15 14 11 11 11 12 13 13 14 15 16 16
18 17 17 17 16 15 15 15 14 14 14 13 13 13 14 13 13 14 13 14 15 15 15 16 15 16 15 14 14 14 15 15 11 10 10 12 13 13 14 14 16 18
16 16 16 16 16 15 16 15 14 14 14 15 15 15 15 14 14 14 13 13 14 15 16 15 15 15 15 14 14 14 15 14 11 9 9 11 12 12 13 14 15 18
16 16 16 16 16 15 15 15 15 16 15 15 15 15 15 14 14 14 13 13 14 15 16 15 16 16 15 15 14 15 16 14 10 9 9 11 11 12 13 13 14 18
16 16 16 16 16 16 16 16 16 16 15 14 14 14 14 14 14 13 13 13 12 14 16 16 16 16 16 16 15 15 16 13 10 9 10 11 11 12 13 13 15 19
17 17 17 16 16 16 17 17 17 16 15 14 14 13 13 14 14 14 13 13 12 12 14 16 17 16 17 17 16 15 15 13 10 9 10 11 12 13 12 12 18 21
17 17 17 17 16 16 17 18 17 16 14 14 13 13 13 13 14 14 14 13 13 11 12 15 16 17 17 18 18 16 16 14 11 10 10 11 13 14 12 13 19 22
17 17 17 17 16 17 18 18 17 14 14 12 11 11 11 10 11 11 13 14 14 13 12 13 16 17 18 18 19 18 18 16 13 11 10 11 14 15 13 14 19 22
17 17 17 17 17 18 18 18 16 15 14 12 10 10 9 8 8 8 9 11 13 15 15 13 15 17 18 18 19 19 19 18 16 14 11 10 13 16 14 14 16 18
18 18 18 18 18 19 18 16 16 15 12 10 8 8 8 7 8 8 8 8 9 11 14 15 16 17 18 18 19 19 19 19 18 17 14 10 11 15 15 14 15 17

ECMWFNIL_850_spd_096.txt.gz
Wind_Speed
8 8 10 11 10 10 10 10 11 9 11 14 15 15 14 14 14 14 13 13 13 12 13 12 12 12 12 12 12 12 11 12 14 15 14 14 14 14 14 14 14 12
10 9 10 11 11 11 12 12 11 12 15 16 16 16 15 14 14 14 14 13 13 13 13 13 13 13 13 13 14 13 13 15 16 16 16 16 15 14 14 15 15 14
9 9 10 10 11 12 12 13 13 16 18 17 17 17 16 15 14 14 14 14 14 13 13 13 14 14 14 14 15 15 16 16 16 16 16 17 16 16 16 15 15 16
10 10 10 10 12 13 13 15 17 18 18 17 17 17 16 15 14 14 15 15 15 14 14 14 15 16 16 15 16 16 17 17 16 15 15 16 17 17 16 15 14 17
11 11 11 11 12 14 14 16 19 18 17 17 17 16 16 16 15 15 15 15 16 16 15 15 15 17 17 16 16 17 17 17 16 15 15 15 16 16 16 15 14 16
12 12 12 13 14 16 17 18 18 18 17 17 16 16 15 15 15 15 15 15 16 16 16 16 16 16 17 17 17 17 17 16 14 14 15 14 14 15 15 15 14 15
14 14 13 14 16 18 18 18 18 18 17 17 16 15 15 15 16 15 14 15 15 15 15 15 15 16 16 16 16 16 16 16 15 14 14 14 14 14 14 13 13 15
15 14 14 15 18 18 18 17 17 17 16 16 16 16 15 15 15 15 14 14 14 14 14 14 15 15 15 15 15 14 15 15 15 14 14 14 14 13 13 13 14 15
14 15 16 18 19 18 18 18 17 16 15 15 16 16 15 14 14 13 14 13 13 13 13 13 14 14 14 15 14 13 14 14 13 13 14 13 13 13 14 14 14 15
16 18 19 19 19 18 18 18 17 17 16 15 15 16 15 14 13 12 12 12 13 13 13 13 12 11 12 14 14 13 13 13 12 12 12 12 11 13 13 14 14 14
18 19 19 19 19 18 18 18 17 17 16 15 15 15 14 13 12 12 12 12 12 12 12 12 12 11 10 12 14 13 12 13 12 11 12 11 12 14 14 13 14 14
20 20 19 19 19 18 18 18 17 16 15 15 14 14 13 12 12 12 12 12 12 12 12 12 12 12 11 11 12 12 12 12 12 12 13 13 13 14 14 14 14 13
21 20 19 19 19 19 18 18 17 16 16 15 14 13 13 12 12 12 12 12 11 11 11 12 12 12 12 12 11 12 13 13 12 12 13 14 13 12 13 13 13 11
21 20 19 19 19 19 18 17 16 15 15 15 14 14 12 11 11 12 12 12 12 12 12 11 12 13 14 13 12 11 12 12 12 12 12 12 11 11 12 13 14 13
21 21 20 19 19 18 17 16 16 15 14 14 14 14 13 11 10 12 13 12 12 12 12 11 12 14 15 14 12 11 11 13 13 12 11 11 11 10 12 14 17 17
21 20 20 19 18 17 17 17 16 16 14 13 13 14 13 11 11 12 12 12 12 12 13 13 14 15 15 14 12 12 12 13 13 11 10 11 11 10 12 14 17 21
21 21 20 19 18 17 17 16 16 15 14 13 13 14 13 12 12 12 12 12 12 13 13 14 15 15 14 13 12 11 12 13 13 10 9 11 10 10 13 13 15 22
21 21 20 19 18 17 16 16 15 14 14 13 14 14 13 13 13 13 13 12 13 13 13 14 14 14 14 13 12 11 11 13 14 10 9 11 11 10 12 12 15 22
21 21 20 19 18 17 16 16 15 15 14 14 14 14 13 13 13 13 13 13 13 13 13 14 14 14 14 13 12 12 12 13 13 10 9 11 11 11 11 11 16 23
21 21 20 19 18 18 17 16 15 15 15 15 15 14 13 13 13 12 13 13 13 13 13 14 14 14 14 13 13 12 12 12 12 10 9 10 11 11 10 11 18 22
20 20 20 19 19 17 17 17 16 16 16 15 14 14 13 12 12 12 12 12 13 13 13 13 14 14 14 14 13 12 10 11 10 8 8 8 12 12 8 11 18 21
20 20 20 19 19 18 18 18 17 16 16 15 14 13 13 12 12 12 11 11 12 12 13 13 14 14 14 14 14 12 9 10 8 5 5 6 11 12 9 11 18 21
21 21 20 20 19 19 19 19 18 17 16 15 15 14 13 12 12 11 11 10 10 11 12 13 13 14 14 14 14 13 11 10 8 4 3 3 6 11 11 12 17 20
21 21 21 20 19 19 19 19 18 17 15 14 14 13 12 12 11 11 12 11 10 10 12 13 13 13 14 13 14 14 12 12 11 8 5 3 4 9 11 13 17 19
21 21 21 20 20 20 20 19 18 17 15 14 13 12 10 9 8 9 11 11 11 11 12 12 12 13 13 14 14 14 13 13 13 12 10 8 6 8 9 12 15 17
21 21 21 20 20 21 20 19 19 17 15 13 11 10 9 8 7 7 8 10 11 12 12 12 13 13 14 14 14 13 13 13 13 13 13 11 10 9 9 10 14 15

ECMWFNIL_850_spd_102.txt.gz
Wind_Speed
15 15 15 15 14 13 12 10 7 4 8 10 9 9 9 8 8 7 7 6 6 6 5 5 5 4 4 4 4 4 4 4 5 7 7 7 8 9 10 10 10 10
15 15 16 15 13 12 11 9 7 6 10 12 11 11 10 9 9 8 7 7 7 6 6 6 5 5 5 5 5 5 5 4 5 7 7 9 10 10 10 11 11 11
16 16 15 14 13 12 12 11 7 9 14 14 12 12 11 10 10 9 9 8 7 7 7 6 6 6 5 5 5 5 5 4 6 7 8 10 11 11 12 12 11 12
16 16 15 15 14 14 14 12 9 14 16 15 14 13 12 12 11 11 10 8 8 8 8 8 7 7 6 5 5 4 5 5 7 8 9 12 13 13 13 12 12 12
16 16 16 15 16 15 14 11 13 17 17 16 15 14 13 13 12 11 10 9 9 9 9 9 8 7 6 5 4 4 4 6 8 8 10 13 14 14 14 12 12 13
17 17 17 17 17 16 13 14 17 18 17 17 16 15 14 13 12 12 11 10 10 9 9 9 8 7 6 5 4 4 5 7 8 8 10 13 13 13 13 13 13 13
19 19 19 19 17 15 15 19 19 18 18 17 16 15 14 12 12 11 10 10 9 9 8 8 7 7 6 5 4 4 6 8 8 8 9 12 12 13 13 14 14 14
19 20 20 19 17 18 20 21 20 19 19 17 16 15 13 12 11 10 10 9 8 8 7 6 6 6 5 5 4 4 6 8 9 9 10 12 13 13 13 14 14 14
19 21 21 20 20 21 22 22 21 19 18 16 15 14 12 12 11 10 10 9 8 7 6 6 5 4 4 4 4 5 6 8 9 10 11 13 14 13 13 13 14 14
20 20 20 20 21 22 22 22 21 19 17 15 14 13 12 12 11 11 11 10 9 8 7 6 5 4 3 2 3 5 7 9 10 12 13 14 14 14 14 14 15 16
19 19 19 20 22 22 22 21 20 18 16 14 13 12 12 13 13 12 11 10 10 9 8 7 5 4 3 3 4 6 8 10 11 12 13 14 14 14 15 16 17 16
19 20 20 21 22 22 21 21 19 18 16 14 13 13 13 14 13 12 11 10 9 9 8 7 5 5 4 4 5 6 8 9 11 12 12 13 13 14 16 17 18 17
20 20 21 21 22 22 21 20 18 17 15 14 13 13 14 13 12 12 11 10 9 8 8 7 6 5 5 5 6 7 7 8 10 10 11 11 11 13 16 17 18 17
20 20 21 22 22 22 21 20 18 17 15 14 14 14 14 13 12 12 11 11 10 9 8 7 6 6 6 6 7 7 8 8 8 9 8 8 9 12 14 16 18 17
21 22 23 23 23 22 21 20 19 17 15 14 14 15 14 13 12 12 11 11 11 9 8 8 7 7 7 7 7 7 8 8 7 7 6 5 7 10 11 13 17 18
24 25 25 24 23 22 22 21 20 18 16 15 15 14 14 13 13 13 12 11 10 10 9 8 8 8 8 8 8 7 8 8 8 7 4 3 5 8 9 11 15 17
26 26 26 24 23 22 22 21 20 19 17 16 15 15 14 14 13 13 12 11 10 10 9 9 9 8 8 8 8 8 8 9 9 7 4 3 4 5 7 10 14 16
28 27 26 25 24 23 22 21 20 19 17 16 16 15 15 14 14 13 12 11 10 9 9 9 9 9 9 9 8 8 8 8 7 5 3 3 3 4 5 9 13 14
28 28 27 27 25 24 23 21 20 18 16 16 17 16 15 15 14 13 12 12 11 10 9 9 9 9 9 9 9 8 7 7 6 5 2 1 2 3 5 8 11 13
29 29 29 28 26 25 23 22 20 18 15 16 17 17 16 15 14 14 13 12 11 10 9 9 9 9 9 9 8 7 6 7 6 4 2 0 1 3 3 6 9 11
31 30 29 28 27 26 24 22 21 19 16 16 17 16 16 15 15 14 13 12 11 10 9 9 9 9 8 7 6 5 5 6 5 4 2 1 0 1 3 5 7 9
31 30 29 29 28 26 24 23 21 19 18 18 18 17 16 15 15 13 12 12 11 10 9 9 9 9 8 7 6 5 5 6 6 5 3 2 1 2 5 6 7 8
31 30 30 29 28 26 24 23 21 19 19 19 19 18 17 16 14 13 12 11 11 10 9 8 9 9 8 7 6 5 4 5 6 5 4 2 2 4 6 7 7 8
31 31 30 29 27 25 24 22 21 20 19 19 19 19 17 15 14 14 13 11 11 10 9 8 8 8 8 6 6 5 4 4 4 3 2 1 2 4 5 5 6 8
31 31 30 29 27 25 23 22 22 21 20 19 18 18 17 16 15 14 13 12 11 10 9 8 7 8 8 7 6 5 4 4 3 2 2 2 2 3 3 4 5 7
31 31 30 28 26 24 23 23 22 22 21 20 18 18 18 18 16 15 14 13 12 11 10 9 8 7 7 7 6 5 4 4 3 3 3 3 3 2 2 3 4 6

ECMWFNIL_850_spd_108.txt.gz
Wind_Speed
13 12 12 12 12 12 12 11 11 11 10 10 9 7 7 7 6 5 4 3 2 2 3 4 5 6 6 7 8 7 8 8 8 9 9 9 10 11 11 11 12 13
13 13 14 14 13 12 11 11 11 11 11 10 8 7 8 7 6 5 4 3 2 2 3 4 5 6 6 7 7 7 7 8 8 9 9 9 10 10 11 12 13 13
14 15 15 14 12 11 11 11 11 11 12 9 6 9 8 8 7 6 4 3 2 2 3 4 5 6 6 7 7 7 7 7 8 8 8 8 9 10 11 12 12 13
16 16 14 13 12 11 11 10 10 11 11 7 7 9 8 8 7 6 4 3 2 2 3 4 5 5 5 6 6 6 6 6 7 8 8 8 10 10 11 12 12 13
15 14 13 12 12 11 10 10 10 10 9 5 9 9 8 7 6 5 4 3 2 2 3 4 4 5 5 5 5 5 5 6 7 8 7 9 10 10 11 11 12 13
14 13 12 12 11 11 10 10 9 9 6 6 10 9 8 7 6 5 4 3 2 2 2 3 4 4 4 4 4 4 5 6 7 7 7 8 9 10 10 10 11 12
14 13 13 12 12 11 10 10 9 8 5 8 10 9 8 7 6 5 4 3 3 2 2 2 3 4 4 3 3 4 5 6 7 7 7 8 9 9 9 10 11 11
14 13 13 13 13 12 11 10 9 6 6 10 10 9 8 7 6 5 5 4 3 2 2 3 3 3 3 3 4 4 5 6 6 6 6 7 8 8 9 10 10 11
14 13 14 14 13 12 11 10 9 6 9 11 10 9 8 7 6 6 5 4 3 3 3 3 3 3 3 4 4 4 5 5 6 6 6 7 7 8 9 9 10 11
14 14 14 14 14 13 12 10 9 8 11 11 10 8 8 8 7 6 6 5 4 3 3 3 3 3 3 4 4 4 5 6 6 7 6 7 7 8 9 9 10 11
14 14 15 15 15 14 12 10 9 11 12 11 9 8 8 8 8 7 6 5 5 4 3 3 3 3 3 4 5 5 5 5 6 6 6 7 7 7 8 9 10 11
14 15 15 15 15 13 12 11 12 13 13 11 9 8 7 8 8 7 7 6 6 5 4 3 2 3 4 5 5 5 5 5 5 6 6 6 6 7 8 9 10 11
13 14 15 15 14 13 12 13 14 14 12 10 9 8 7 7 8 8 8 7 6 5 5 3 3 4 5 5 5 4 4 4 4 5 5 5 5 6 8 9 10 11
13 13 14 14 13 13 14 15 15 14 12 10 9 8 7 8 9 9 8 8 7 6 5 4 4 5 5 5 4 4 4 3 3 4 4 4 5 6 8 9 10 11
13 13 14 14 14 15 16 16 15 14 12 10 9 9 9 10 10 10 9 8 7 7 6 5 5 5 5 5 4 4 4 3 2 2 3 4 5 7 8 9 10 11
13 14 14 15 16 17 17 17 16 14 12 11 11 11 11 11 11 10 9 8 7 7 6 6 6 5 5 5 4 4 4 3 2 2 2 3 5 7 9 10 10 11
14 15 15 16 17 18 18 17 15 14 12 12 12 12 12 13 12 11 10 9 8 7 7 6 6 6 5 5 4 5 5 4 3 2 2 3 5 7 9 9 10 11
15 16 16 17 18 18 18 17 16 15 13 13 12 12 13 13 12 11 10 10 9 8 8 7 7 6 6 5 4 5 5 4 4 3 3 4 5 7 8 8 9 10
16 16 17 18 18 18 18 17 17 15 14 13 12 12 13 13 12 12 11 10 10 9 8 8 8 7 6 5 5 5 5 4 4 3 3 4 5 6 7 7 8 10
17 17 18 18 18 19 19 18 17 16 14 13 12 12 13 13 12 12 12 11 10 9 9 9 8 8 7 6 6 5 5 4 3 3 2 3 4 5 6 6 7 9
18 18 19 18 18 19 19 18 17 16 14 13 12 12 12 12 12 12 12 12 11 10 10 9 9 8 7 7 6 5 5 5 3 2 2 2 3 4 5 6 7 8
19 19 20 20 19 20 20 19 17 16 14 12 12 12 13 13 13 13 12 12 11 11 10 9 9 9 8 8 7 6 5 4 3 2 1 1 2 3 4 5 7 8
20 20 21 21 21 21 21 20 17 15 14 12 11 12 13 14 14 13 13 12 11 11 10 9 9 9 9 8 7 6 5 4 3 2 1 0 1 3 4 5 6 7
20 20 21 21 21 22 21 19 17 15 13 12 10 11 12 14 14 14 14 13 12 11 10 10 9 9 9 8 7 5 5 4 3 2 2 1 2 3 4 5 6 6
19 20 21 21 22 22 21 18 17 15 13 12 11 11 12 14 14 14 14 13 13 12 11 11 10 9 8 7 7 6 5 4 3 3 2 2 2 3 4 5 6 5
19 20 21 21 21 22 20 18 17 15 14 13 12 12 13 14 14 15 14 14 14 13 13 12 10 9 8 8 7 6 5 5 4 3 3 2 3 3 4 5 5 4

ECMWFNIL_850_spd_111.txt.gz
Wind_Speed
12 9 8 7 6 6 5 6 7 8 9 10 11 9 6 4 5 7 7 7 6 6 6 6 8 8 9 9 9 8 9 9 10 12 11 10 11 10 11 12 12 12
12 11 10 8 7 7 7 7 8 9 11 12 11 6 4 6 7 8 7 7 6 6 6 7 8 9 9 9 9 8 9 10 11 11 10 10 11 10 11 12 12 12
13 12 10 9 9 8 7 8 9 10 12 12 7 3 6 8 9 9 8 6 6 6 7 8 9 9 9 9 9 9 9 10 10 10 9 9 10 10 11 11 11 11
13 11 11 11 11 8 8 9 10 10 12 9 2 6 8 10 10 9 8 7 6 6 8 9 9 9 9 9 9 9 9 9 10 10 8 8 9 9 10 11 11 12
13 12 13 14 11 8 8 10 10 10 10 3 7 9 9 10 9 8 7 7 6 6 7 8 9 9 9 9 8 8 8 8 9 8 7 8 9 9 10 11 12 13
13 14 15 12 9 8 10 10 9 10 6 4 10 10 10 10 9 8 7 6 6 6 7 8 9 9 9 9 8 7 7 7 8 7 6 8 9 9 11 12 12 14
16 16 14 10 9 10 11 9 9 9 3 9 11 10 11 10 9 9 7 6 6 7 7 8 8 8 8 8 7 6 6 6 7 7 6 7 8 9 11 12 13 14
17 15 12 10 11 11 10 9 8 6 6 12 12 11 11 10 9 9 7 7 7 7 8 8 8 8 8 8 6 5 5 6 6 6 6 7 8 9 12 12 12 13
16 13 12 12 12 11 9 9 8 5 10 13 12 12 12 11 9 8 8 8 7 7 7 8 8 8 8 7 6 5 5 6 6 6 6 7 8 10 12 12 12 13
15 14 14 13 13 12 10 9 8 7 12 14 12 12 12 12 11 9 9 8 7 7 7 8 7 7 8 7 7 6 6 6 6 6 7 7 8 10 11 11 12 13
16 15 14 13 13 12 11 10 9 9 14 14 13 12 12 12 12 11 10 9 8 7 7 8 7 7 7 7 7 7 6 6 6 6 7 7 8 9 10 11 11 12
15 15 13 13 13 12 11 10 10 12 15 15 14 13 12 12 12 12 11 10 9 9 8 8 7 7 8 7 7 7 7 6 6 6 6 7 8 9 9 10 11 12
15 14 13 13 13 13 12 10 12 14 15 15 15 13 12 12 12 13 12 11 10 10 9 8 7 8 8 8 7 7 7 6 6 5 6 7 8 9 9 10 10 12
14 13 12 13 13 13 12 12 15 16 16 16 15 14 13 12 13 13 13 12 11 10 10 9 8 9 9 8 8 8 7 6 6 5 6 7 8 8 9 9 10 11
14 13 13 13 14 14 14 14 17 18 18 17 15 14 14 13 14 14 13 13 12 11 10 9 9 9 9 8 8 8 7 6 5 5 6 8 9 8 8 9 10 11
14 13 13 14 15 15 16 17 19 20 19 17 15 15 14 14 15 14 13 13 12 12 11 10 10 10 9 9 8 8 7 6 5 5 6 8 8 8 8 8 10 11
14 13 14 15 16 17 18 20 21 21 19 17 16 15 15 15 15 15 14 13 12 12 11 10 11 10 10 9 9 8 7 6 5 5 6 7 7 7 7 8 9 10
14 13 14 16 17 18 20 21 22 21 19 17 16 15 15 16 16 15 15 15 14 12 11 11 11 11 10 10 9 9 8 6 6 5 6 7 7 6 7 7 8 9
15 14 15 16 18 19 21 23 22 21 19 17 16 15 16 17 17 16 16 15 15 14 12 11 11 11 11 10 10 10 9 8 6 5 6 7 6 6 6 6 7 7
16 15 16 17 19 20 22 23 23 21 19 17 16 16 16 17 17 17 16 16 15 14 13 12 11 11 11 11 11 11 10 8 7 5 5 6 6 5 5 5 6 6
17 17 17 18 20 21 23 24 23 21 19 18 17 16 16 17 17 17 17 16 16 15 14 13 12 12 11 11 12 12 10 9 8 6 5 5 5 4 4 4 4 5
19 18 18 19 20 22 24 24 23 21 20 18 18 17 17 18 17 17 17 16 16 15 14 14 13 12 12 12 12 12 11 10 9 7 6 5 4 3 3 3 3 4
21 19 19 19 21 22 24 24 22 21 20 19 18 18 18 18 18 17 17 17 16 15 15 14 14 13 13 13 13 12 11 10 9 8 7 6 5 4 3 2 2 2
21 21 19 19 21 22 23 22 22 21 19 19 18 18 18 19 18 18 18 17 16 15 14 14 14 13 14 13 13 12 12 11 10 9 8 6 5 4 3 2 1 1
21 21 20 19 20 21 21 21 21 20 19 18 18 18 18 19 19 19 18 18 17 16 15 14 14 13 13 13 13 13 12 11 11 10 9 8 6 5 4 3 2 1
21 21 20 20 19 20 20 20 21 21 19 19 19 19 19 19 19 19 19 18 18 17 16 16 15 14 13 13 13 13 12 12 11 11 10 9 8 6 5 3 2 2

ECMWFNIL_850_spd_114.txt.gz
Wind_Speed
16 15 13 10 9 8 7 6 6 5 5 6 6 7 6 5 8 11 12 12 11 11 11 12 13 14 14 14 13 13 13 12 12 11 11 10 10 10 10 11 12 12
17 15 13 12 10 9 8 7 6 5 6 8 9 7 5 9 11 13 12 12 12 12 12 13 14 14 14 14 13 12 12 12 12 11 10 10 10 10 11 11 12 11
17 15 15 13 11 10 9 7 6 7 8 9 8 5 9 13 14 14 13 12 12 12 13 14 15 15 15 14 13 12 12 11 11 10 10 10 10 11 11 11 11 11
18 16 16 14 12 10 9 6 6 7 8 9 5 8 13 14 15 14 14 13 13 13 14 15 15 15 15 14 12 12 12 11 11 10 10 10 10 11 11 11 10 10
18 18 16 14 13 11 9 7 6 7 8 7 6 13 14 14 15 14 14 14 13 14 15 15 15 15 15 14 12 11 11 11 11 10 10 10 10 10 11 10 10 10
20 18 15 15 13 11 9 7 7 8 8 5 12 16 15 15 15 14 14 14 14 14 15 15 15 15 15 13 12 11 11 11 11 10 9 9 10 10 10 10 10 11
21 18 16 16 14 12 10 8 8 9 6 8 16 17 15 16 15 14 14 14 14 14 15 15 15 15 14 13 12 11 11 11 11 10 9 9 9 9 10 10 10 12
21 17 16 17 15 12 10 8 8 8 6 13 18 17 16 16 15 15 14 14 15 15 15 15 15 15 14 13 11 10 11 11 11 10 8 8 9 9 10 10 11 12
20 16 17 17 14 12 10 9 8 7 8 17 19 17 17 16 15 15 15 15 15 15 15 15 15 15 14 13 11 10 10 10 10 9 8 8 9 9 10 10 11 12
19 18 19 17 13 13 11 9 8 6 12 20 20 18 18 16 15 15 15 15 15 15 15 15 14 14 14 13 12 11 10 10 10 9 9 9 9 10 10 11 11 12
19 20 20 16 15 14 12 11 9 8 16 22 20 18 18 17 17 16 15 15 15 15 15 14 14 14 13 13 12 12 11 10 9 9 9 9 9 10 11 11 11 11
21 22 19 17 16 15 14 14 11 11 19 22 20 19 18 18 18 17 16 16 15 15 14 14 14 13 13 13 13 12 11 10 9 9 9 9 10 10 11 11 11 11
24 22 19 18 17 16 16 15 12 14 21 23 21 19 19 18 18 17 17 16 15 15 15 14 14 14 14 14 13 12 11 10 9 9 9 9 10 10 11 11 11 11
23 21 19 19 18 17 17 16 13 17 23 23 22 20 19 19 18 18 18 17 16 16 15 14 14 15 15 15 14 12 11 10 9 9 10 10 10 11 10 11 10 10
22 21 21 20 18 18 19 16 14 20 25 23 22 21 19 19 19 18 18 17 17 16 15 15 15 16 16 16 14 13 11 11 10 10 10 10 11 11 11 11 10 9
22 22 21 20 20 20 19 17 16 23 26 23 22 21 20 20 19 19 18 18 18 17 16 15 16 17 17 16 15 13 12 11 11 11 11 11 11 11 10 10 10 9
23 22 21 20 20 20 20 18 19 24 25 23 23 22 21 21 20 20 19 19 18 18 17 16 17 17 16 15 15 14 13 11 11 12 12 11 11 10 10 10 9 9
24 22 21 21 20 20 20 19 21 25 26 25 24 23 22 22 21 21 20 19 19 18 17 16 17 17 16 15 14 14 13 12 11 12 12 10 10 9 7 7 8 8
25 22 22 21 20 20 20 20 22 26 27 25 24 23 22 22 22 22 21 21 20 18 17 17 17 16 16 15 14 14 14 12 10 11 11 10 9 9 7 6 6 6
25 23 23 22 21 21 21 21 24 27 27 26 24 23 23 23 23 23 22 21 20 19 18 17 17 16 16 15 15 14 14 13 10 9 10 9 9 9 8 7 8 7
25 25 24 22 21 21 21 22 26 29 28 27 25 24 23 23 24 24 23 22 21 20 19 18 17 17 16 15 15 14 14 14 10 8 9 8 8 9 8 7 8 8
26 25 24 23 22 22 22 24 28 30 29 27 26 24 23 23 24 24 23 22 22 21 20 19 18 17 16 16 16 15 14 13 10 8 8 8 8 8 7 7 7 8
28 26 25 25 23 22 23 25 28 30 29 28 26 24 24 24 24 24 23 23 23 22 21 19 18 17 17 17 16 16 15 12 9 8 9 8 9 9 7 7 7 8
29 28 27 25 24 23 24 25 28 30 29 27 25 24 23 23 23 24 23 23 23 22 21 20 18 18 18 17 17 17 15 14 12 10 10 10 10 10 9 8 8 8
29 28 26 24 23 24 23 24 27 29 28 26 24 23 22 22 23 24 23 23 23 22 22 21 19 18 18 17 18 18 17 16 15 13 14 14 13 12 11 10 9 7
28 27 24 23 23 22 22 24 27 28 27 25 24 22 22 22 23 24 24 23 23 23 22 20 19 18 18 18 19 18 18 17 15 13 15 16 15 13 12 11 9 8

ECMWFNIL_850_spd_117.txt.gz
Wind_Speed
23 21 19 19 16 14 14 11 9 9 9 8 7 7 7 6 9 14 16 17 16 16 15 15 15 15 16 16 15 15 14 13 12 12 11 11 11 10 11 11 11 10
22 22 22 20 18 15 13 12 11 10 9 8 7 7 7 7 10 16 17 17 17 16 16 16 16 17 16 16 15 14 14 13 12 12 11 11 11 11 10 10 10 9
22 24 23 20 18 17 14 11 12 12 10 8 7 8 8 8 13 18 18 18 18 17 17 17 18 18 17 16 16 15 14 13 13 12 11 12 11 11 11 10 9 9
23 24 22 19 18 17 14 13 13 13 11 8 8 9 8 10 16 20 19 18 18 17 18 18 19 19 17 17 16 15 14 13 13 12 11 12 12 11 10 10 9 10
23 23 21 20 18 16 15 15 14 12 9 7 9 9 9 13 18 20 19 18 18 18 19 19 19 19 18 17 16 15 14 14 13 12 12 12 12 11 11 10 10 10
23 22 21 19 18 16 17 16 14 10 8 8 10 9 11 16 19 19 19 18 18 18 19 20 20 19 18 17 16 15 15 14 13 12 12 12 11 11 11 11 10 10
24 21 20 20 19 18 18 16 13 9 8 9 10 11 15 19 19 19 19 18 18 19 20 20 20 19 18 17 16 16 15 14 14 13 12 11 11 11 11 11 10 10
25 20 20 21 21 20 18 16 11 8 9 10 11 14 17 19 19 19 19 19 19 20 20 20 20 19 18 17 16 15 15 15 14 13 12 12 12 11 11 11 11 10
23 22 23 23 22 20 19 17 11 8 10 11 13 16 19 19 19 19 19 19 20 20 21 20 20 19 18 17 16 15 15 15 14 13 12 12 12 12 11 10 10 10
23 25 25 23 22 20 18 17 11 8 11 14 16 19 20 19 19 19 19 20 20 20 21 21 20 19 18 17 16 15 15 14 14 13 12 12 12 12 11 11 10 10
26 27 26 23 23 20 18 17 11 9 13 17 19 21 21 20 20 19 20 20 20 20 20 20 20 19 18 17 17 16 15 14 14 13 13 13 12 12 12 11 11 10
29 29 26 24 23 20 19 16 11 12 16 18 20 21 21 21 20 19 19 20 19 19 19 19 19 18 18 18 17 16 15 14 14 14 13 13 12 12 12 11 11 10
31 30 26 24 23 21 19 15 11 13 17 19 20 21 22 21 20 20 19 18 18 18 18 19 19 18 18 17 16 16 15 14 14 14 13 13 12 12 11 11 11 10
31 29 26 25 22 20 20 16 11 13 17 20 21 22 22 21 20 21 20 18 18 19 19 19 18 17 17 17 16 15 14 14 14 14 13 13 12 12 11 11 10 10
31 28 26 25 22 20 21 18 13 14 18 20 22 22 22 21 20 21 20 19 19 20 20 19 18 18 18 17 16 15 14 13 13 13 12 12 11 11 11 10 10 9
31 28 26 25 22 21 23 19 13 15 18 21 23 23 23 22 21 20 20 20 19 20 20 20 19 19 20 19 17 15 14 13 12 12 11 11 10 10 10 9 8 8
28 26 25 25 23 23 24 19 14 16 19 21 23 23 23 23 22 21 20 19 19 20 21 20 20 21 22 21 19 17 15 13 12 12 11 11 10 9 9 7 6 5
25 25 25 25 24 26 26 19 16 17 20 22 23 24 24 24 23 22 21 20 20 20 20 21 21 22 22 21 20 19 17 14 12 12 12 10 9 9 8 7 6 4
26 27 26 25 26 27 27 22 18 19 22 23 24 26 25 24 23 22 22 22 21 20 20 21 21 21 20 20 19 18 18 15 12 11 12 11 10 10 9 9 8 5
27 28 25 26 27 27 28 23 19 20 23 24 26 27 27 25 23 22 21 22 21 20 19 20 21 20 19 20 19 17 18 16 12 12 13 12 13 14 12 12 11 8
30 29 26 27 27 26 27 24 20 20 24 27 28 28 27 26 24 22 21 21 21 20 18 19 21 20 19 21 20 18 19 18 15 15 15 13 14 15 14 14 14 13
31 30 28 28 27 26 27 27 24 24 26 29 29 27 25 25 23 22 21 21 22 20 18 18 21 20 19 21 20 19 20 20 17 16 15 12 12 14 13 12 13 14
31 30 29 29 28 27 27 28 27 26 26 29 29 27 26 25 22 21 21 23 23 21 18 19 21 21 20 20 20 20 20 19 17 14 13 12 12 12 12 11 13 15
32 31 31 30 29 27 27 27 27 26 27 28 29 29 27 26 25 23 21 22 22 20 19 19 21 21 20 20 20 20 19 19 17 13 12 11 10 10 11 11 13 15
32 31 31 30 29 28 28 28 29 28 28 28 28 29 28 27 27 26 24 23 23 22 21 19 20 21 21 20 20 20 20 20 17 12 10 10 10 10 11 10 11 13
33 32 32 31 30 29 28 28 29 29 28 28 29 29 28 27 26 25 25 24 24 24 23 19 18 20 21 20 20 20 21 21 17 10 9 11 11 10 10 9 11 12

ECMWFNIL_850_spd_123.txt.gz
Wind_Speed
31 30 30 28 26 24 23 23 24 23 22 21 20 19 20 20 18 17 15 14 14 14 14 13 13 12 12 11 11 12 13 13 13 13 13 13 12 12 11 11 11 10
30 29 28 28 27 25 23 23 23 22 21 20 19 19 20 20 19 18 16 15 15 14 14 14 13 12 11 11 12 12 13 13 13 13 13 13 12 12 11 10 10 9
30 29 28 28 27 25 23 22 22 22 21 20 19 18 18 19 20 18 17 16 15 14 14 14 13 13 12 11 12 13 14 14 14 14 13 13 13 12 11 10 9 9
31 30 29 29 27 25 23 22 23 22 21 20 18 17 17 18 19 18 17 17 16 16 16 15 14 13 13 13 13 14 15 15 14 14 14 14 13 12 11 10 9 8
32 32 30 28 27 25 23 23 24 23 22 20 18 17 17 17 17 17 17 17 18 18 17 16 15 14 14 14 14 15 15 15 15 14 14 13 13 11 10 10 9 9
33 32 30 28 27 25 24 24 24 23 21 19 18 18 17 16 16 16 16 17 18 19 18 17 16 15 15 15 16 16 16 16 15 15 14 13 12 12 11 11 10 10
33 31 29 28 26 25 25 26 25 23 21 19 18 17 17 15 15 15 15 16 18 19 17 17 16 15 16 16 17 18 17 16 16 15 14 13 13 12 12 11 10 10
33 30 29 29 28 26 27 27 26 24 22 20 18 17 16 15 14 14 14 15 18 18 17 16 16 15 16 17 18 18 18 17 16 15 15 14 13 13 12 11 11 10
33 31 31 31 29 28 28 27 25 24 22 20 18 17 16 15 15 14 14 15 17 17 16 16 16 16 17 18 19 18 18 17 16 15 15 14 13 13 12 11 11 11
33 32 33 32 30 29 29 27 26 24 22 20 19 17 16 16 16 13 13 16 17 17 17 16 17 18 18 19 19 19 18 17 16 16 15 14 13 12 12 11 11 11
34 34 34 33 31 31 30 29 27 24 22 20 19 18 17 17 15 13 14 16 16 17 17 17 18 19 19 19 19 19 19 17 16 16 15 14 14 13 12 12 12 12
35 36 35 33 32 31 31 29 26 24 22 21 19 17 17 17 15 14 16 16 16 17 18 18 19 19 19 20 20 20 19 17 16 16 16 15 14 14 13 13 13 12
38 37 35 34 33 31 30 28 25 23 21 20 18 17 17 17 15 15 16 17 17 18 18 19 20 20 20 20 21 21 20 18 18 17 17 16 15 14 14 14 13 12
39 37 35 34 32 32 31 28 25 23 21 19 18 17 18 18 16 16 18 18 18 19 19 20 20 20 21 21 21 21 20 19 19 18 17 16 15 15 14 13 12 11
39 37 35 34 33 33 32 29 26 23 20 19 19 19 19 19 18 17 19 19 19 20 20 20 21 21 21 22 22 22 21 20 19 18 18 17 16 16 15 13 11 11
38 37 36 34 34 34 32 30 27 24 22 21 20 20 20 21 19 19 20 20 21 21 21 21 21 21 21 22 22 21 21 21 20 19 18 17 16 16 14 12 12 12
38 37 36 35 35 35 32 30 28 26 24 23 22 22 21 21 21 21 21 21 21 22 21 21 21 21 21 21 22 21 21 21 20 20 19 17 17 15 14 13 13 14
38 38 37 37 36 35 33 31 30 27 26 24 24 22 22 22 22 22 22 22 22 22 22 21 20 20 20 21 21 21 21 20 20 20 18 17 17 16 14 14 14 15
37 38 39 39 37 35 34 33 31 29 27 26 24 23 23 23 23 23 23 23 24 23 22 21 20 19 20 21 21 20 20 20 19 19 18 17 17 17 15 14 15 16
38 39 40 40 37 35 36 35 33 30 28 25 24 24 25 24 24 24 24 25 25 24 23 22 21 20 20 21 21 20 19 19 19 19 18 18 18 17 16 15 15 16
39 40 41 39 37 37 38 37 34 32 28 25 24 25 26 25 26 26 25 26 26 25 25 24 22 22 21 21 21 19 18 18 19 19 19 18 18 18 18 17 16 16
40 42 42 39 37 39 40 39 35 32 29 25 24 25 25 26 27 27 26 27 27 26 26 25 24 23 22 22 22 20 19 19 19 19 19 19 19 19 19 17 17 16
40 41 41 39 39 41 42 39 36 32 29 25 24 25 26 28 28 28 28 28 29 28 27 26 25 23 21 21 23 22 21 22 21 20 20 20 20 20 20 18 17 16
41 40 40 40 40 42 41 38 35 33 29 26 25 25 27 29 29 29 29 30 30 29 28 26 25 22 20 21 23 22 21 23 23 22 22 21 21 21 21 20 17 16
41 39 39 39 41 42 41 38 36 34 31 28 26 25 26 28 30 31 31 31 31 30 28 27 26 22 20 21 22 22 22 24 25 25 24 24 23 22 22 21 19 18
37 38 38 40 42 42 40 39 37 35 31 28 26 26 26 28 30 32 32 32 32 31 31 29 26 22 21 21 21 22 24 26 28 28 26 25 24 23 22 21 20 20

ECMWFNIL_850_spd_129.txt.gz
Wind_Speed
37 37 36 35 33 30 29 27 26 26 26 26 25 24 23 22 22 22 21 20 20 20 20 20 20 20 20 19 18 18 18 19 19 18 19 19 18 18 17 17 16 14
37 37 36 34 32 30 28 27 26 26 26 25 25 23 22 22 22 22 21 20 20 20 20 20 20 20 19 18 18 18 18 18 18 18 19 19 18 17 16 16 14 13
37 37 36 34 32 30 28 26 26 25 25 25 25 23 23 23 23 22 21 21 20 20 21 21 20 20 18 18 17 17 18 18 18 18 18 18 18 17 16 15 14 13
38 37 36 34 32 29 27 26 26 26 26 25 24 22 22 23 23 23 22 21 20 21 21 21 20 19 18 18 18 18 18 18 18 19 19 18 18 17 16 15 14 14
37 36 35 34 32 29 28 28 27 26 26 25 23 21 21 22 23 23 22 21 21 21 21 21 20 19 18 19 20 19 19 19 19 19 19 18 17 16 16 15 14 14
37 35 34 34 32 30 29 28 27 26 26 25 23 21 20 21 22 22 22 22 21 21 21 22 21 20 19 20 20 21 20 19 19 19 18 17 16 16 15 15 14 14
37 35 34 33 31 29 28 28 28 27 26 25 24 22 21 22 22 22 22 22 21 21 21 22 22 21 20 21 21 21 21 20 19 19 18 16 16 15 15 15 14 14
37 35 33 32 31 29 28 29 29 27 26 26 25 23 22 22 22 22 22 21 20 20 20 21 21 21 21 22 22 21 21 20 19 18 17 16 16 16 16 16 15 14
37 35 34 32 31 30 29 30 30 28 27 27 25 24 23 22 22 21 21 20 19 19 19 19 19 20 21 22 22 21 20 20 19 18 17 16 16 16 16 16 15 15
37 35 34 33 32 30 29 30 30 29 28 27 25 24 24 23 22 21 20 20 19 18 17 17 17 19 20 21 21 20 19 19 18 17 17 16 16 16 16 15 15 15
38 36 35 34 32 30 31 32 31 29 28 27 26 25 24 23 22 21 21 20 18 17 16 16 17 18 19 20 20 20 19 18 17 16 16 16 16 15 15 14 14 14
39 37 36 35 32 31 33 34 31 29 28 28 27 26 25 24 23 22 22 19 17 16 16 16 16 17 18 19 20 19 19 18 17 16 16 16 16 15 15 14 14 14
40 38 37 35 33 33 34 33 31 29 29 28 28 26 25 24 23 23 21 18 17 16 16 16 16 16 18 19 19 18 18 18 17 17 17 17 16 16 15 15 15 15
41 39 36 34 33 33 33 33 31 30 29 29 28 26 24 24 23 22 20 19 18 18 17 16 16 17 19 20 19 18 18 18 18 18 17 17 17 17 16 16 16 16
41 38 35 33 33 34 33 33 33 30 29 29 28 25 24 24 24 22 21 20 19 19 18 17 16 19 20 19 18 18 18 18 18 18 18 18 18 18 17 16 16 16
40 39 36 34 36 37 33 33 34 31 29 29 27 24 24 25 24 23 22 21 20 19 19 17 18 20 19 18 17 17 18 18 18 18 18 18 18 17 17 17 16 16
40 39 37 36 38 37 33 33 33 31 30 31 26 23 24 26 25 24 23 22 20 19 18 18 19 20 19 18 18 17 18 18 18 18 18 18 17 17 17 17 16 15
41 40 39 38 38 37 34 32 33 34 35 32 26 24 26 27 26 26 24 22 21 19 18 18 19 19 19 18 18 18 18 17 18 18 18 17 17 17 17 16 15 14
41 40 40 39 37 37 35 32 35 39 37 30 26 26 28 28 28 27 25 23 21 19 17 18 19 20 19 18 18 18 18 18 18 17 17 17 17 16 16 16 16 15
41 40 41 40 37 36 35 36 38 39 34 28 28 29 30 30 29 27 25 24 21 18 17 18 19 20 19 19 19 18 18 18 18 17 18 18 17 16 17 17 16 15
40 40 42 42 37 35 37 40 38 34 32 31 31 32 32 31 28 26 26 24 20 18 17 18 20 21 20 19 19 18 18 18 18 18 19 18 17 17 17 17 15 14
41 42 43 43 39 35 38 40 37 33 33 33 33 35 34 31 27 27 26 22 19 18 18 18 20 20 20 19 18 17 18 18 19 19 20 19 18 17 17 17 16 16
43 43 43 42 39 35 38 42 39 34 33 34 35 37 36 31 28 27 25 21 19 19 18 18 20 21 20 19 18 17 18 19 20 20 20 19 18 18 17 17 17 18
44 43 41 40 38 37 38 40 39 35 35 36 38 39 37 31 26 26 24 21 20 19 18 18 19 20 20 19 18 17 18 18 19 20 20 19 19 18 18 18 19 20
44 43 40 39 39 39 37 37 39 39 37 38 40 40 35 28 24 25 24 21 19 18 18 19 19 19 18 18 18 18 18 18 18 19 20 19 19 19 19 19 20 20
43 42 40 38 38 39 39 39 42 42 39 40 42 38 31 25 25 26 25 21 19 19 20 19 18 18 18 18 17 18 18 17 18 19 20 19 18 19 19 20 21 21

ECMWFNIL_850_spd_132.txt.gz
Wind_Speed
41 40 37 35 33 30 29 28 26 24 23 22 21 20 20 19 19 18 18 18 17 17 17 17 17 18 18 17 16 16 16 16 16 16 16 16 16 16 16 15 15 16
42 41 38 36 34 31 29 27 26 25 23 21 19 19 19 19 19 18 18 17 18 17 17 17 18 17 17 16 16 16 16 16 16 15 15 16 15 15 15 14 14 14
43 42 39 37 34 31 29 27 26 25 23 20 19 19 19 19 19 18 17 17 17 17 17 18 18 17 17 16 16 16 16 15 15 15 15 15 15 15 14 15 14 13
44 42 39 37 35 31 28 27 27 26 24 21 19 18 18 19 19 18 17 17 17 17 18 18 17 17 17 16 16 16 16 16 15 15 15 15 15 15 14 14 14 13
44 42 39 38 35 31 29 28 28 26 23 21 19 19 19 19 19 19 18 17 17 18 18 18 17 17 17 17 16 16 16 16 16 15 16 16 15 15 15 14 13 12
44 42 40 38 35 31 30 29 28 26 23 21 20 19 20 20 19 18 17 17 18 18 18 18 17 17 17 17 17 16 16 17 17 16 16 16 15 15 15 14 13 12
44 41 40 38 35 32 30 29 28 26 23 21 21 20 20 20 19 18 17 17 18 19 19 18 17 17 17 18 18 17 17 18 18 17 17 16 15 15 15 14 13 12
43 40 40 38 35 32 31 30 29 26 23 23 22 21 21 20 19 18 17 17 18 18 18 18 17 17 17 18 18 18 18 18 18 18 18 17 16 15 14 14 13 12
42 40 40 38 35 33 31 30 28 26 24 23 23 22 21 20 19 18 17 17 18 18 18 18 17 17 17 18 19 20 19 19 19 18 17 16 15 14 13 13 12 11
42 40 39 38 35 33 31 30 28 26 25 24 23 22 21 21 20 19 18 18 17 18 18 18 17 17 18 19 19 20 19 19 18 18 17 16 14 13 12 12 11 11
42 40 39 38 36 33 31 29 27 26 25 24 23 22 22 22 21 20 20 19 18 18 18 17 17 17 17 17 17 17 18 18 18 18 17 15 14 13 12 11 11 10
41 40 39 37 35 33 31 28 27 26 26 24 23 23 23 24 23 21 20 19 18 18 18 17 17 16 15 14 14 15 17 18 18 18 16 14 13 13 12 12 11 10
42 40 39 36 34 32 30 29 28 26 25 24 23 23 25 25 25 23 20 19 18 18 18 18 17 15 14 13 14 15 16 18 18 17 16 15 13 13 12 12 11 10
41 39 38 36 33 31 30 30 29 27 24 23 23 24 25 25 25 22 21 20 19 18 19 18 17 15 14 13 14 15 17 18 17 17 16 15 14 13 13 12 12 11
40 38 37 35 32 31 31 30 29 28 25 23 25 25 25 24 23 21 21 21 20 19 19 19 18 15 14 14 14 15 17 17 17 17 16 16 15 14 14 14 13 12
39 37 36 35 34 33 32 30 29 28 25 24 26 26 24 24 23 22 21 21 20 20 20 19 18 15 14 14 14 15 17 18 18 17 16 16 16 15 15 15 14 14
38 37 36 36 35 34 32 30 29 29 26 24 26 26 25 24 23 23 22 22 21 21 20 19 17 15 14 14 15 17 18 18 17 17 17 17 17 16 16 16 15 14
38 38 37 36 35 35 33 30 29 30 28 26 26 27 25 23 22 23 22 22 21 20 20 19 17 15 14 15 17 18 18 18 17 17 17 17 17 17 16 15 14 14
39 38 37 35 35 35 33 31 30 30 30 29 27 27 26 23 23 23 21 21 22 20 20 18 16 15 15 15 18 19 19 19 18 17 17 16 16 16 16 15 14 14
39 38 37 35 35 34 34 34 32 30 30 31 28 27 29 26 25 24 22 22 22 20 19 18 17 15 15 16 19 20 20 19 18 17 17 17 16 16 16 15 14 14
39 38 36 35 35 35 35 35 34 30 30 32 30 28 30 30 27 26 23 22 22 20 19 19 17 16 16 17 19 21 21 20 19 18 18 18 17 16 15 15 15 15
39 38 37 36 35 35 34 35 37 34 30 31 31 30 31 32 30 25 21 21 21 21 20 20 18 16 16 18 20 21 21 21 20 19 19 18 18 16 16 16 17 17
39 38 37 36 35 36 35 36 39 36 30 29 32 32 32 35 32 24 19 20 21 21 20 20 19 17 16 19 21 22 22 22 21 20 19 18 18 17 18 18 17 17
39 38 36 36 35 35 37 36 36 36 34 30 31 32 33 35 31 23 20 22 22 21 20 20 18 16 17 19 22 22 22 22 20 20 19 19 18 19 19 18 17 17
38 37 37 36 34 35 38 35 31 36 39 32 28 32 34 32 27 23 24 27 25 21 20 20 17 15 17 20 21 22 21 21 20 20 19 19 19 20 20 18 17 17
37 37 36 36 34 35 37 33 31 40 43 33 26 31 33 29 26 25 28 30 26 22 22 22 18 16 16 19 20 21 20 20 20 20 19 19 19 19 19 18 17 17

ECMWFNIL_850_spd_135.txt.gz
Wind_Speed
38 38 38 39 38 36 34 31 28 27 25 25 23 20 18 16 15 15 15 15 15 15 15 15 15 15 14 14 14 14 15 15 15 15 16 16 17 17 17 17 17 16
38 38 38 39 39 37 35 32 28 25 24 24 22 20 18 16 15 15 15 14 15 15 15 15 15 15 15 14 14 15 15 15 15 15 15 15 16 17 17 16 16 15
38 39 39 39 39 38 35 32 28 25 24 24 22 21 19 17 16 16 15 14 15 15 16 16 16 16 15 15 15 15 15 14 14 14 14 15 15 16 16 16 15 15
39 39 40 40 40 38 35 32 30 27 25 24 23 21 20 18 18 17 15 15 15 16 16 17 17 17 16 15 15 15 15 14 13 13 14 14 14 14 14 14 14 14
39 39 41 41 40 38 36 34 31 28 26 25 24 23 21 20 19 18 16 16 16 17 17 18 18 17 16 15 15 15 14 14 13 13 13 13 13 13 13 13 13 13
39 40 42 42 41 39 37 34 31 29 27 25 25 24 23 22 20 18 17 17 17 17 18 18 18 17 16 15 15 15 14 14 13 12 13 13 12 12 12 13 13 12
41 43 43 42 41 39 37 35 32 30 28 26 26 25 24 23 21 19 18 17 17 17 18 18 18 16 16 15 15 14 14 14 13 13 13 14 13 12 13 13 12 12
44 44 43 42 41 40 38 35 33 31 29 27 27 26 24 23 21 19 18 17 17 17 18 18 17 16 16 15 15 15 15 14 14 14 14 15 14 13 13 13 12 12
46 44 43 43 41 40 39 36 33 32 31 29 28 26 25 24 22 20 18 18 17 17 17 18 18 17 16 15 15 15 15 15 15 15 15 15 15 14 13 13 13 12
47 45 44 44 42 40 39 36 33 33 32 30 29 27 25 24 22 20 19 19 18 18 17 18 18 17 16 15 15 14 15 15 16 16 16 16 16 15 14 13 13 13
47 46 46 44 42 41 39 36 34 34 32 30 29 28 26 25 23 22 21 20 19 18 18 18 18 16 15 15 15 15 15 16 17 17 17 17 16 15 15 14 14 14
46 47 47 45 43 41 39 36 34 34 33 31 30 29 27 25 24 23 21 20 20 19 19 19 18 16 16 16 15 15 16 16 17 18 18 18 17 17 16 16 16 15
46 47 47 46 43 41 39 35 34 34 33 31 30 29 27 26 25 23 21 20 21 20 20 19 18 17 17 16 16 15 16 17 18 18 19 19 18 18 17 17 17 16
46 47 48 46 43 41 38 34 33 33 32 31 30 29 28 26 25 23 22 22 22 21 21 20 19 18 18 17 16 16 16 17 18 19 19 19 19 18 18 18 18 17
45 48 48 45 42 40 37 32 30 31 31 30 29 29 28 26 25 24 24 24 23 23 23 22 20 20 19 17 16 15 16 17 18 18 19 19 19 19 19 19 18 18
46 48 46 43 42 41 36 30 28 29 30 30 30 29 28 27 26 25 25 25 24 23 24 23 22 21 19 17 16 15 15 16 17 18 19 19 19 19 20 19 19 18
46 46 45 43 42 40 35 29 27 28 31 32 31 29 28 28 27 27 27 24 22 23 24 23 22 21 19 18 17 15 15 16 18 19 19 19 19 20 20 19 18 18
45 45 44 43 42 38 34 29 27 29 31 33 32 30 29 29 29 28 27 24 22 22 24 23 21 20 19 18 17 15 15 17 19 20 20 20 20 20 20 19 18 17
46 45 43 43 41 37 34 30 28 31 33 33 32 31 30 30 31 30 27 24 23 22 23 24 23 21 20 18 16 14 15 17 20 20 20 20 19 19 20 19 18 17
45 44 44 43 41 37 34 31 30 34 35 32 30 32 31 30 30 30 27 24 23 22 22 23 23 20 18 17 14 14 15 18 21 21 20 19 19 19 19 19 18 17
44 44 43 42 40 37 34 32 32 36 35 31 30 33 33 31 30 29 27 25 23 22 22 23 22 19 18 16 14 14 16 18 21 21 20 20 20 20 19 19 18 17
44 44 43 42 40 38 36 33 34 38 37 31 30 32 33 33 32 29 27 26 24 23 22 22 22 21 19 17 15 14 16 20 22 22 21 21 21 21 21 19 18 18
44 43 43 42 41 39 37 34 34 37 37 32 30 32 34 35 35 31 28 26 26 25 24 23 23 23 21 18 17 16 18 22 24 23 22 22 22 22 21 20 20 21
42 42 42 42 42 40 37 35 35 36 36 34 33 33 32 34 35 33 30 29 28 26 24 24 24 23 22 20 18 18 20 22 24 24 23 23 23 22 22 22 22 21
39 40 40 41 41 39 36 35 35 34 33 32 33 34 32 30 31 32 31 30 30 26 23 23 23 22 22 21 19 19 21 23 24 25 24 24 24 23 23 23 22 21
37 38 39 39 38 37 35 34 33 31 30 29 31 35 36 31 27 29 31 32 31 28 26 24 23 22 22 22 20 20 21 22 25 25 25 25 25 25 25 24 23 22

ECMWFNIL_850_spd_138.txt.gz
Wind_Speed
40 37 32 26 23 24 25 22 20 21 22 21 22 23 23 23 21 20 19 19 18 18 17 17 16 16 16 16 17 17 18 17 17 16 15 14 14 14 15 16 16 16
42 39 34 28 23 22 24 25 24 23 23 24 24 25 24 23 22 20 19 18 17 17 17 17 16 17 17 17 18 18 18 17 17 16 15 14 15 16 18 18 17 18
45 41 37 34 28 22 24 29 28 23 24 25 23 23 23 23 24 21 18 17 17 17 17 17 17 17 18 19 19 18 17 16 15 15 16 16 15 16 17 17 17 17
42 41 39 39 31 22 25 30 26 22 25 26 22 22 22 23 26 24 19 18 17 18 18 18 18 17 18 19 18 17 15 14 14 15 16 14 13 13 14 14 15 15
36 38 37 40 35 24 25 29 24 21 26 27 23 22 23 25 27 24 21 20 19 19 19 19 19 19 19 19 18 17 16 15 14 14 15 13 12 12 13 13 14 15
31 32 32 37 35 26 25 27 23 21 26 28 25 24 24 25 26 24 23 21 20 21 21 21 21 21 21 20 19 19 19 17 16 16 16 14 13 14 15 16 16 18
29 28 29 31 31 29 27 25 22 21 24 27 27 25 25 26 27 25 23 22 21 22 22 22 22 22 22 21 21 21 21 20 18 18 18 17 16 17 17 18 19 19
29 28 27 28 32 35 30 24 22 22 23 27 29 28 26 26 28 27 25 23 22 23 23 21 22 23 23 22 22 21 20 20 19 19 19 18 17 17 17 18 18 19
30 29 26 29 36 36 30 25 23 23 24 26 29 29 27 27 28 29 26 25 25 24 24 22 22 24 25 23 22 22 20 20 20 20 20 19 18 17 17 18 18 18
30 30 28 32 36 33 31 27 23 23 24 25 27 29 29 28 29 30 29 27 28 26 25 24 24 25 26 25 23 22 21 20 20 20 20 20 19 18 18 18 18 18
31 31 31 32 32 31 34 30 23 24 25 24 26 28 30 30 30 32 32 29 30 28 25 24 25 25 25 25 24 23 22 21 21 21 20 20 20 20 20 19 19 19
32 33 31 30 31 33 36 32 25 25 26 26 26 27 31 33 32 34 34 31 30 29 26 25 26 25 25 24 24 23 22 22 22 21 21 20 20 21 20 20 20 20
31 34 31 30 31 34 36 32 27 27 27 26 26 26 29 34 35 35 35 32 31 29 28 27 26 25 25 24 24 23 22 23 23 22 21 21 21 22 22 22 21 21
29 33 31 30 30 31 34 34 30 31 29 26 26 26 26 31 35 37 35 33 32 31 30 30 28 27 27 26 25 24 24 24 23 21 21 21 21 22 23 23 23 23
28 31 31 31 30 31 35 36 34 34 32 28 28 27 26 29 34 37 36 34 33 33 32 31 31 29 30 29 27 26 26 25 23 21 21 21 21 22 24 24 24 24
28 32 32 31 31 34 37 37 35 35 32 29 28 28 27 28 32 37 37 35 34 34 33 32 32 31 32 31 28 26 26 24 22 21 21 21 22 23 24 24 25 25
31 34 33 31 31 33 35 36 35 33 31 28 27 29 30 30 33 37 38 36 35 34 34 33 33 33 32 30 28 26 25 23 22 21 21 22 23 24 25 25 25 25
34 34 33 31 30 32 35 36 34 32 29 26 26 31 33 32 34 38 38 37 36 35 35 34 33 33 32 29 28 27 26 24 22 21 22 22 24 24 25 25 25 25
34 33 33 32 32 33 35 35 34 32 29 26 25 30 33 32 34 38 39 38 37 35 35 34 32 31 30 29 29 28 27 24 22 22 22 23 24 25 25 25 26 26
32 33 33 32 33 34 35 36 35 31 29 27 28 32 34 34 35 38 38 38 37 36 35 33 32 30 29 30 30 29 27 24 22 22 22 23 25 25 25 26 26 27
33 34 33 32 34 36 36 37 34 30 28 29 30 34 37 37 37 38 38 37 36 35 35 34 32 28 28 31 31 28 26 23 22 22 22 24 25 25 25 26 27 27
33 33 33 34 35 37 38 37 33 30 29 27 27 31 36 39 39 39 38 37 36 35 36 36 32 26 26 31 31 29 26 23 22 22 22 24 26 26 26 27 27 27
33 32 33 35 36 36 38 36 33 32 32 30 28 29 34 39 41 39 37 37 38 38 38 36 31 25 26 31 32 30 26 24 23 23 23 25 27 27 27 28 28 28
34 34 34 35 35 34 36 37 35 34 36 35 33 33 35 39 41 40 40 40 39 38 36 34 30 27 28 32 33 30 27 25 24 23 24 26 28 28 28 28 29 29
35 35 34 33 34 34 36 37 35 36 38 37 35 37 38 38 38 40 42 41 39 36 34 34 32 29 30 33 33 30 28 26 24 24 25 26 28 29 29 29 30 30
33 34 33 32 34 35 36 35 35 38 40 37 35 37 37 36 37 40 40 39 39 37 35 36 34 32 31 33 32 30 28 27 25 25 25 26 28 30 31 31 31 30

ECMWFNIL_850_spd_141.txt.gz
Wind_Speed
26 26 28 31 30 29 28 25 22 21 22 22 21 19 18 17 17 20 24 25 25 25 24 23 21 20 21 21 22 22 21 20 20 21 21 20 19 19 19 17 16 16
29 27 27 29 31 30 29 27 24 22 22 23 22 20 20 20 18 20 24 24 24 24 23 23 22 21 21 22 22 21 20 20 21 22 22 21 21 20 19 17 17 18
32 30 29 27 29 32 30 27 24 24 23 22 22 24 25 24 22 21 23 24 24 23 24 24 22 22 21 21 21 21 20 19 19 19 20 22 22 21 19 17 17 18
35 33 32 28 26 29 31 28 25 25 26 25 26 29 28 26 24 21 21 24 24 24 24 24 23 22 22 21 22 20 19 17 16 16 18 20 20 20 18 17 17 17
34 33 32 29 26 27 28 29 28 27 27 28 29 30 27 24 22 21 21 24 26 25 24 24 23 21 22 22 21 19 18 18 17 17 17 17 18 20 19 18 18 17
31 31 30 28 28 29 27 27 29 29 27 27 27 26 24 23 22 22 23 24 26 26 25 25 23 21 22 21 20 20 20 20 19 18 17 16 16 16 15 16 17 17
30 31 31 29 30 32 30 28 29 29 28 26 25 24 23 23 25 26 25 24 26 26 24 24 23 22 22 21 20 21 20 19 18 19 18 15 15 16 14 14 16 16
33 30 29 30 31 33 32 30 29 29 29 28 26 26 26 25 27 29 26 24 26 27 24 23 22 22 21 21 22 21 19 18 19 20 19 17 17 18 16 15 16 17
33 28 28 31 33 35 34 32 32 30 28 27 26 27 27 27 30 30 25 23 28 30 26 23 22 22 23 22 21 21 20 21 21 20 19 18 17 18 18 18 19 20
31 27 29 32 35 37 34 32 34 32 26 26 27 28 28 28 29 28 24 25 30 32 29 25 25 25 26 24 21 20 22 23 21 20 20 18 17 18 20 20 21 21
30 28 31 33 34 36 35 34 35 33 28 26 27 29 30 29 27 26 25 28 32 34 31 28 26 24 24 24 22 21 23 23 22 21 20 20 18 19 21 21 22 24
27 28 32 32 30 33 36 38 36 33 29 27 26 29 32 30 27 26 27 29 33 36 33 27 25 23 21 21 20 21 24 24 23 21 19 20 19 19 21 22 24 26
28 28 31 32 29 30 36 38 36 32 31 28 28 31 33 31 29 28 29 29 32 36 33 27 24 23 23 22 20 21 24 24 24 22 19 19 19 20 22 25 26 26
32 30 28 29 28 28 33 38 38 34 31 29 30 32 33 32 30 29 29 28 30 34 33 27 24 24 26 25 24 25 26 24 24 23 21 19 20 22 24 26 27 26
36 32 26 26 27 27 30 36 40 37 32 31 32 32 33 34 32 29 30 28 28 32 34 29 25 26 27 26 26 28 27 23 23 23 21 20 21 24 25 26 26 26
38 35 29 27 27 27 29 34 38 39 35 33 33 32 32 35 34 31 31 29 28 31 34 30 27 28 28 26 26 26 25 23 23 23 20 20 23 26 26 26 26 25
36 35 32 31 28 27 31 34 35 38 38 35 33 31 32 36 35 31 30 30 28 31 34 31 30 31 31 30 30 28 24 23 23 22 19 20 25 27 26 26 26 25
34 33 32 31 27 26 32 34 34 38 40 37 35 34 33 36 35 31 30 30 28 29 33 32 31 32 32 33 34 32 28 23 20 19 19 21 26 28 26 26 27 26
33 33 32 30 27 26 31 33 35 40 41 39 38 37 35 35 35 32 30 30 28 29 32 32 31 34 35 35 33 31 30 26 20 18 18 21 26 28 26 26 27 27
33 33 33 30 27 28 31 33 36 40 40 40 40 38 35 36 36 33 31 31 30 30 32 33 35 38 37 34 32 30 30 30 25 19 18 19 23 26 26 26 27 28
33 33 33 30 26 28 31 33 36 39 39 39 39 36 36 38 37 35 35 35 32 30 30 31 36 42 39 33 33 32 31 31 28 22 19 19 20 24 26 26 26 28
34 34 33 29 27 30 33 33 36 39 39 39 38 36 36 38 37 35 37 37 34 32 31 31 37 44 40 34 34 34 31 30 29 24 20 19 20 23 26 26 26 28
35 36 34 31 30 32 34 36 37 39 40 40 39 39 38 38 36 34 34 32 33 34 32 31 38 44 40 34 34 35 31 29 29 25 20 18 20 23 26 26 27 28
37 36 34 32 31 31 32 36 39 39 40 41 40 40 40 39 35 32 29 28 30 32 28 29 38 43 39 35 36 35 31 29 31 27 21 19 21 23 25 26 26 28
37 37 33 30 30 31 32 36 39 40 41 41 39 38 38 36 33 31 29 28 29 30 28 30 38 42 39 36 36 36 31 29 30 27 22 21 23 23 25 26 25 28
37 36 32 29 29 32 35 36 37 39 40 39 38 37 33 30 30 29 27 27 29 30 29 32 39 42 39 36 36 37 33 29 30 29 23 22 25 24 25 25 24 26

ECMWFNIL_850_spd_144.txt.gz
Wind_Speed
31 31 32 33 32 31 30 29 27 26 25 25 26 27 28 28 28 28 28 30 29 27 26 26 26 24 22 21 20 20 20 19 19 19 22 23 21 20 20 20 22 22
30 29 32 34 33 31 30 29 28 27 27 26 25 26 27 27 27 26 27 30 30 29 27 27 27 25 23 22 21 21 22 21 19 19 22 23 21 21 21 21 22 23
32 31 32 34 34 32 30 29 28 29 28 27 26 26 26 26 26 26 26 28 31 30 29 28 27 26 24 22 22 22 22 21 20 19 21 22 21 21 23 22 22 24
33 33 33 33 32 32 31 30 30 30 30 29 28 27 26 26 25 25 26 28 30 31 30 29 27 26 24 23 22 22 22 21 21 20 22 21 20 22 25 25 24 24
34 33 32 32 31 29 30 31 31 32 31 29 29 28 27 27 26 26 27 28 29 31 32 30 28 26 25 23 23 23 23 22 22 22 22 22 22 23 25 26 26 25
36 35 32 31 32 29 28 30 31 32 32 31 29 29 28 28 28 28 29 28 28 30 32 31 29 27 25 24 24 24 24 23 23 23 22 22 22 23 25 26 26 25
37 36 34 33 33 31 29 30 31 31 33 33 32 30 29 30 30 30 29 29 29 30 32 32 30 28 26 25 26 26 24 23 23 23 23 22 21 22 23 23 23 23
36 36 35 34 33 33 33 33 33 32 31 32 34 33 31 31 31 30 29 29 29 30 31 31 30 29 27 27 27 27 25 24 24 24 24 23 22 22 22 21 21 22
38 36 34 33 33 35 37 37 37 35 32 31 33 34 33 33 32 30 29 30 30 30 30 31 30 29 28 28 28 27 26 27 26 25 25 23 23 23 22 22 22 22
38 36 35 35 36 36 38 39 39 38 36 34 35 35 34 33 32 30 29 31 32 31 29 30 30 30 29 29 28 28 28 28 28 28 27 25 24 24 22 22 23 22
36 36 36 37 37 36 38 40 40 38 38 38 38 37 35 32 30 30 31 31 32 31 29 29 30 31 30 30 29 30 30 29 29 28 27 26 26 26 23 22 23 23
38 37 38 37 36 37 39 40 40 40 40 41 41 41 37 33 31 33 34 32 31 30 29 30 30 29 31 32 31 31 31 30 28 26 25 25 26 26 23 23 24 25
40 38 38 37 36 37 39 39 40 41 41 42 42 41 38 35 34 35 36 34 31 29 30 31 30 29 32 34 32 32 33 31 29 26 26 26 25 25 24 24 26 27
40 38 37 36 36 37 39 40 40 41 42 42 42 40 37 36 37 36 37 36 32 31 31 31 31 31 33 35 34 34 34 32 30 28 28 28 27 26 25 24 26 27
39 39 38 37 36 38 39 40 40 41 42 42 42 40 37 37 38 36 37 37 35 34 33 33 34 34 34 36 36 35 33 32 29 28 29 29 27 25 25 25 26 26
39 40 41 40 39 39 40 41 41 41 43 43 42 41 38 38 38 37 37 37 36 36 36 36 36 36 36 37 37 36 33 30 28 29 29 29 27 26 24 24 25 27
40 41 42 42 41 41 41 41 42 42 43 44 43 42 40 39 39 39 38 38 38 38 38 39 38 37 38 39 38 35 33 31 29 29 29 29 29 27 25 25 26 28
39 41 41 42 43 42 41 42 42 43 43 43 44 44 43 41 41 41 40 40 40 39 40 40 39 39 41 42 39 36 34 33 31 30 30 30 30 29 28 28 29 29
38 39 40 42 43 42 42 42 42 43 43 44 45 45 45 43 43 43 42 41 42 42 42 41 40 40 42 43 41 38 36 35 32 31 30 30 30 30 28 28 28 28
39 38 38 40 42 42 42 41 42 42 43 43 44 45 46 46 45 44 44 43 43 43 43 41 40 41 42 42 41 39 38 36 34 32 30 29 29 29 27 27 27 26
43 40 37 37 40 42 42 41 41 43 44 43 44 46 48 47 46 45 45 45 45 43 42 42 41 41 42 43 42 40 39 38 35 32 30 29 29 27 25 26 27 27
44 42 37 35 38 42 43 42 42 44 45 45 45 47 48 48 47 47 47 46 45 44 42 41 42 42 42 43 42 40 40 39 36 33 32 29 28 27 25 26 26 26
43 42 38 36 40 43 44 45 45 45 45 46 47 47 47 49 49 48 47 46 44 44 42 42 43 44 43 43 43 41 40 40 38 36 34 31 29 27 25 25 25 26
43 42 40 40 43 46 47 47 47 46 46 47 48 46 46 49 50 48 46 44 44 45 44 42 44 45 43 42 42 41 40 40 40 39 38 34 31 28 26 25 25 25
44 43 43 44 46 48 50 50 49 47 46 47 47 45 45 48 49 48 46 45 44 45 44 43 45 46 44 42 41 40 40 40 40 42 41 38 34 30 28 26 25 26
48 46 46 47 49 50 51 51 51 49 47 47 46 44 45 47 48 48 47 45 44 44 45 45 45 45 44 43 42 41 40 41 43 44 42 39 35 32 30 28 27 27

ECMWFNIL_850_spd_150.txt.gz
Wind_Speed
44 43 43 44 43 42 40 37 34 34 36 38 39 39 40 42 41 40 40 38 36 35 34 33 31 30 29 29 29 29 30 30 29 27 26 27 26 26 26 26 25 26
44 42 42 44 43 41 39 35 33 32 34 36 37 38 40 42 42 42 42 41 38 36 34 33 32 31 30 29 29 30 30 30 30 29 28 28 27 27 26 26 25 25
44 43 42 42 41 38 35 32 31 31 32 33 34 36 39 41 43 43 43 43 41 38 36 34 34 32 31 30 30 30 31 31 30 29 29 28 28 28 26 25 25 26
44 43 41 40 37 36 34 30 28 29 30 32 32 33 36 40 43 44 44 45 44 41 38 37 36 35 33 32 31 31 31 31 30 30 30 29 29 28 27 26 26 26
44 43 41 39 37 37 36 32 28 28 29 31 32 33 34 37 42 44 45 46 46 43 41 39 38 37 36 34 33 33 33 33 32 31 31 30 29 29 28 27 27 27
45 44 42 42 40 38 38 37 32 28 27 29 32 35 36 38 41 44 45 46 47 45 43 41 40 40 39 38 36 35 35 34 33 32 32 31 30 30 29 29 29 28
45 45 44 44 43 41 41 41 36 31 31 33 34 37 39 40 42 44 45 45 47 47 44 42 42 42 41 41 39 38 37 36 35 34 34 33 31 31 30 30 30 30
44 45 46 46 45 43 44 44 41 40 41 41 39 39 42 43 43 45 46 46 47 48 45 42 42 43 43 43 42 40 39 39 38 37 36 34 33 33 32 31 31 31
44 44 46 47 47 45 45 45 44 45 48 47 46 44 45 45 45 45 46 47 47 49 48 44 42 42 43 43 44 42 41 40 40 38 37 36 35 34 33 33 32 32
44 44 45 47 47 47 47 46 45 45 48 51 52 49 47 47 46 46 46 47 47 49 51 48 44 41 41 42 43 43 42 41 41 40 39 37 36 35 34 34 33 32
44 43 44 46 47 47 48 47 46 43 46 53 55 52 49 48 46 46 47 48 48 49 50 50 47 42 39 39 41 43 42 42 43 42 41 39 37 36 35 35 34 33
44 44 44 44 45 45 46 47 46 44 48 54 54 51 50 48 46 46 47 48 49 49 50 51 49 44 40 38 39 41 42 42 43 43 42 40 38 37 36 35 35 34
45 44 42 43 44 43 44 47 48 49 50 51 50 50 49 47 46 46 47 48 49 50 50 50 50 47 43 39 38 40 41 42 42 44 44 42 40 38 37 36 36 34
43 42 41 41 43 43 45 48 50 49 48 48 49 49 48 47 47 47 47 48 50 50 50 50 51 49 46 42 40 40 41 41 41 42 44 44 42 40 38 37 36 35
41 41 41 41 43 45 47 49 50 49 49 50 50 50 49 49 48 48 48 49 50 51 51 51 52 51 48 45 43 41 40 40 40 41 42 44 43 42 40 38 37 36
42 42 41 42 44 47 49 50 51 50 51 52 52 51 50 50 49 49 49 50 50 51 51 52 52 52 50 46 44 42 40 39 40 40 40 41 42 42 41 40 38 37
42 42 42 42 43 45 49 51 51 51 51 53 53 52 51 50 49 50 50 51 51 52 52 52 52 51 50 48 44 42 40 39 39 39 39 40 41 41 41 40 39 38
43 42 42 43 43 44 47 49 51 52 52 53 54 53 52 51 51 51 52 52 52 53 53 53 52 50 50 48 45 42 41 39 38 38 38 38 39 40 40 40 39 38
45 45 45 45 44 43 44 47 50 52 53 54 55 54 53 53 53 53 53 52 53 53 54 53 53 51 50 48 46 43 41 40 38 37 37 37 38 38 38 39 39 38
45 46 47 48 47 46 46 47 50 52 54 54 55 54 54 54 55 54 53 53 54 53 53 54 53 53 51 48 46 44 42 40 38 37 35 35 36 36 36 36 37 38
45 45 44 44 45 47 49 50 50 51 52 54 54 55 55 55 56 55 54 54 54 54 54 54 54 53 52 49 47 45 42 40 39 39 37 34 33 34 34 33 34 35
37 42 44 44 41 39 43 49 51 51 51 53 54 54 55 56 56 55 54 54 54 54 54 54 53 53 52 50 48 45 43 40 40 40 40 38 35 34 35 34 32 32
24 30 38 44 45 41 38 41 47 50 51 51 53 54 55 55 56 55 54 54 54 54 54 54 53 53 52 50 48 46 43 42 41 41 42 42 39 37 37 37 35 32
22 22 26 32 39 43 44 43 44 47 50 51 53 54 55 55 56 56 54 54 54 54 54 54 53 52 52 51 48 47 45 43 42 42 43 44 43 41 40 40 38 35
27 25 24 26 29 34 41 45 45 45 48 51 52 53 54 55 55 56 55 54 54 54 54 54 54 53 53 52 50 48 46 44 42 43 44 45 45 44 43 42 41 39
30 28 27 27 28 29 33 39 42 42 44 48 51 53 53 54 54 54 55 54 54 54 54 54 54 54 54 54 52 50 47 45 43 43 45 46 46 45 45 44 42 41

ECMWFNIL_850_spd_156.txt.gz
Wind_Speed
50 50 48 44 40 37 39 41 40 40 39 35 33 33 33 32 31 30 32 32 31 32 32 31 31 31 32 31 31 32 33 34 34 34 33 32 30 29 28 28 27 27
51 53 51 47 43 40 41 41 40 42 41 36 33 34 33 32 31 30 31 31 31 32 32 31 31 31 32 32 32 32 33 34 34 35 35 34 33 31 30 29 28 28
48 51 52 50 47 44 43 42 42 43 41 38 36 36 34 33 32 32 32 31 31 31 32 32 31 31 32 32 33 33 34 34 34 34 35 35 34 33 32 30 30 29
45 48 52 52 49 46 44 44 45 45 43 41 40 37 35 35 34 33 33 32 32 31 31 32 32 32 32 32 33 34 33 33 32 33 34 34 35 34 33 32 31 30
48 50 52 51 48 46 45 46 47 46 44 43 42 40 38 36 35 34 33 33 33 32 31 31 32 33 34 34 34 35 33 31 31 32 33 34 35 34 33 32 30 30
50 51 51 51 50 49 48 47 48 48 46 44 43 42 40 38 36 35 34 34 34 33 32 31 32 33 34 34 35 35 34 31 30 31 32 34 34 34 33 32 31 30
49 47 44 43 44 46 47 48 48 48 46 44 44 44 42 40 38 35 34 35 35 34 32 31 32 32 33 34 35 36 34 32 31 31 32 33 34 35 34 32 31 31
46 45 43 39 36 35 36 40 43 44 44 43 43 44 44 42 39 36 35 36 36 35 34 32 32 32 31 31 34 36 35 33 32 32 33 33 34 35 34 33 32 31
42 41 41 42 40 35 32 32 35 38 40 41 42 43 45 44 42 39 37 37 37 37 35 33 32 32 30 29 32 35 35 34 33 32 33 34 34 34 34 33 33 32
42 39 39 41 43 42 39 38 39 40 40 41 42 43 45 46 45 42 39 39 39 38 37 35 34 34 33 31 30 32 34 33 33 33 33 33 34 34 33 33 33 33
41 39 38 38 38 39 39 40 44 44 42 41 42 43 45 46 47 45 42 41 40 40 39 38 36 37 37 35 32 31 33 32 32 32 33 33 33 33 33 33 34 33
39 39 38 37 36 36 35 36 41 44 42 41 41 43 45 47 48 47 45 43 42 41 41 40 40 40 39 38 36 34 34 33 32 32 32 33 33 32 33 33 34 33
36 36 37 37 36 35 33 32 36 41 42 42 41 40 44 47 48 48 46 45 43 43 43 42 42 42 41 40 39 38 37 37 35 34 33 33 34 33 32 33 34 34
32 33 34 36 36 35 31 29 32 37 41 42 41 39 42 45 47 47 47 45 45 44 43 43 42 43 43 42 41 40 40 40 39 38 36 35 35 35 33 33 33 34
30 32 35 36 36 35 33 29 30 35 38 39 39 38 40 43 45 47 47 46 45 45 44 44 43 43 44 43 43 41 41 41 40 41 40 38 36 37 36 35 34 34
27 31 36 38 37 35 35 32 30 33 36 38 38 38 39 40 42 45 45 45 45 45 45 45 45 45 45 45 45 44 43 43 42 42 43 42 38 36 37 37 35 35
22 25 31 36 37 34 32 31 31 33 35 38 39 38 38 38 38 40 42 43 43 44 45 46 47 48 48 48 48 47 46 46 45 44 44 43 40 36 36 37 35 35
21 23 27 33 34 31 28 28 31 33 35 37 38 38 37 36 35 35 35 36 38 41 43 46 48 49 50 49 49 46 44 46 46 45 44 44 42 39 36 35 35 34
22 24 26 30 30 27 26 28 30 33 35 36 37 36 35 33 31 29 28 29 30 32 36 40 43 46 47 48 46 42 40 44 46 45 44 44 43 40 36 35 35 34
21 23 24 26 25 25 27 29 30 32 34 35 35 34 32 31 29 29 31 31 29 28 28 31 35 40 42 43 42 41 41 43 44 43 43 42 42 40 37 37 37 35
14 18 20 21 22 22 25 27 28 29 30 31 31 31 30 29 29 29 31 30 30 30 29 28 29 33 37 39 39 40 41 42 41 41 41 40 40 40 39 39 39 37
11 13 14 17 20 22 24 26 26 26 26 27 28 28 28 27 27 27 28 27 28 30 31 28 24 25 30 34 35 37 39 40 39 40 40 40 39 39 39 39 40 39
12 13 13 14 16 20 23 26 26 26 25 26 27 27 26 26 26 27 27 26 27 29 30 29 25 21 23 28 30 32 35 36 36 37 39 39 39 39 39 40 40 41
14 15 15 15 15 17 19 21 23 25 25 26 27 26 25 24 24 25 24 24 25 27 28 30 29 24 23 26 29 31 33 34 34 35 36 37 38 38 38 39 41 42
17 16 17 17 18 18 17 16 17 19 21 22 24 25 25 23 21 21 22 23 25 27 29 32 32 28 25 27 29 32 35 36 36 36 36 36 35 36 36 37 39 41
21 21 20 19 20 21 20 18 17 16 17 19 21 22 22 20 19 19 20 22 24 27 28 31 33 31 29 29 31 33 35 37 37 37 37 37 35 34 33 34 36 39